Location: Northern Prairie Star Party
(53.2167°N, 112.5333°W)
Time: 22:46:29
(UTC-06:00)

Amateur Radio Satellites - All Passes

Search period start: 30 August 2015 22:16
Search period end: 31 August 2015 22:16
Location: Northern Prairie Star Party, 53.2167°N, 112.5333°W

Satellite Date Start Highest point End Downlink Frequencies (MHz)
Time Altitude Azimuth
50 SAT 30 Aug 22:19:31 22:22:32 21° 61° (ENE) 22:25:36 437.505
COMPASS 1 30 Aug 22:23:29 22:27:04 26° 268° (W) 22:30:35 437.405
CUBEBUG 2 30 Aug 22:32:44 22:37:15 47° 262° (W) 22:41:52 437.445
VELOX 1 30 Aug 22:34:08 22:37:52 28° 62° (ENE) 22:41:41 145.980
AAUSAT CUBESAT 2 30 Aug 22:34:57 22:38:23 23° 269° (W) 22:41:44 437.432
CINEMA 3 30 Aug 22:35:22 22:39:24 26° 270° (W) 22:43:29 145.822/145.860
HO-68 30 Aug 22:36:24 22:42:15 25° 272° (W) 22:47:57 435.675
ZACube-1 30 Aug 22:37:48 22:42:20 63° 259° (W) 22:46:57 437.345
TIGRISAT 30 Aug 22:39:34 22:40:29 11° 81° (E) 22:41:37 435.000
UWE-3 30 Aug 22:42:11 22:46:41 47° 262° (W) 22:51:14 435.000/436.395/437.385
FUNcube-1 30 Aug 22:43:48 22:48:17 58° 259° (W) 22:52:52 145.935
ANTELSAT 30 Aug 22:54:46 22:57:26 15° 85° (E) 23:00:13 437.575/2403.000
BEESAT 3 30 Aug 23:01:46 23:05:33 36° 33° (NNE) 23:09:19 437.485
DELFI C3 30 Aug 23:06:45 23:10:24 31° 265° (W) 23:14:01 145.870
BEESAT 2 30 Aug 23:12:06 23:15:54 35° 32° (NNE) 23:19:41 435.950
STRAND 1 30 Aug 23:20:06 23:21:57 12° 314° (NW) 23:23:38 437.568
TISAT 1 30 Aug 23:20:42 23:22:30 13° 53° (NE) 23:24:26 437.305
DX 1 30 Aug 23:23:40 23:28:01 77° 255° (WSW) 23:32:25 434.975-435.025
ESTCUBE 1 30 Aug 23:23:46 23:28:10 57° 70° (ENE) 23:32:36 437.505/2401.250
POLYITAN 1 30 Aug 23:32:04 23:34:06 13° 85° (E) 23:36:18 437.675
HUMSAT D 30 Aug 23:32:43 23:36:51 42° 263° (W) 23:41:00 437.325/437.525
POPSAT HIP 1 30 Aug 23:35:02 23:37:11 14° 85° (E) 23:39:30 437.405
Oscar 11 30 Aug 23:36:13 23:38:42 14° 275° (W) 23:41:00 145.826/435.025
DUCHIFAT 1 30 Aug 23:36:32 23:38:40 14° 85° (E) 23:40:57 145.980
UKube-1 30 Aug 23:38:10 23:42:26 62° 258° (WSW) 23:46:46 .
RS-15 30 Aug 23:38:48 23:50:07 56° 23° (NNE) 00:01:58 29.354- 29.394
AIST 2 30 Aug 23:40:31 23:44:03 25° 23° (NNE) 23:47:35 435.215
AISAT 30 Aug 23:41:09 23:45:34 78° 256° (WSW) 23:50:03 437.250
AUBIESAT-1 30 Aug 23:43:45 23:46:42 19° 95° (E) 23:49:34 437.475
UNISAT 6 30 Aug 23:44:39 23:49:03 40° 96° (E) 23:53:19 437.425
CUBEBUG 1 30 Aug 23:45:15 23:49:33 73° 74° (ENE) 23:53:56 437.445
SPROUT 30 Aug 23:45:44 23:49:26 29° 63° (ENE) 23:53:12 437.525
M-CUBED/EXP-1 PRIME 30 Aug 23:47:42 23:51:07 25° 97° (E) 23:54:22 437.505
BUGSAT 1 30 Aug 23:49:30 23:51:04 12° 84° (E) 23:52:49 437.445
Cosmos 2504 30 Aug 23:50:12 23:57:56 48° 88° (E) 00:06:06 435.465 / 435.565
QB50P2 30 Aug 23:51:00 23:54:09 20° 89° (E) 23:57:22 145.880/145.840
50 SAT 30 Aug 23:52:54 23:56:46 51° 260° (W) 00:00:40 437.505
NANOSAT C BR1 30 Aug 23:52:56 23:56:02 20° 89° (E) 23:59:14 145.865
Cosmos 2491 30 Aug 23:54:45 23:59:14 15° 291° (WNW) 00:03:15 435.465 / 435.565
SWISSCUBE 31 Aug 00:05:30 00:06:20 11° 47° (NE) 00:07:22 437.505
QB50P1 31 Aug 00:05:49 00:09:25 26° 92° (E) 00:13:03 145.935-145.965
YUBILEINY 31 Aug 00:08:32 00:16:36 37° 300° (WNW) 00:24:37 435.215
VELOX 1 31 Aug 00:10:01 00:14:15 45° 261° (W) 00:18:32 145.980
TIGRISAT 31 Aug 00:13:35 00:18:15 69° 102° (ESE) 00:22:46 435.000
ANTELSAT 31 Aug 00:30:14 00:34:56 84° 284° (WNW) 00:39:27 437.575/2403.000
BEESAT 3 31 Aug 00:39:40 00:43:36 47° 234° (SW) 00:47:27 437.485
ITUPSAT 1 31 Aug 00:40:51 00:43:55 17° 54° (NE) 00:47:04 437.325
BEESAT 2 31 Aug 00:50:07 00:54:05 49° 234° (SW) 00:57:58 435.950
TISAT 1 31 Aug 00:53:21 00:57:33 72° 72° (ENE) 01:01:48 437.305
CUSAT 1 31 Aug 00:54:31 00:58:33 47° 93° (E) 01:03:55 437.405
ESTCUBE 1 31 Aug 01:01:53 01:05:24 22° 270° (W) 01:08:52 437.505/2401.250
DX 1 31 Aug 01:03:45 01:05:07 11° 276° (W) 01:06:17 434.975-435.025
POLYITAN 1 31 Aug 01:06:20 01:10:42 89° 288° (WNW) 01:15:02 437.675
POPSAT HIP 1 31 Aug 01:09:22 01:13:44 86° 287° (WNW) 01:18:02 437.405
DUCHIFAT 1 31 Aug 01:10:48 01:15:08 86° 286° (WNW) 01:19:25 145.980
BEESAT 31 Aug 01:13:27 01:17:32 29° 61° (ENE) 01:21:40 436.000
DANDE 31 Aug 01:15:19 01:18:53 43° 93° (E) 01:23:39 436.750
AUBIESAT-1 31 Aug 01:17:44 01:21:50 55° 297° (WNW) 01:25:34 437.475
AIST 2 31 Aug 01:18:55 01:23:11 85° 50° (NE) 01:27:20 435.215
SPROUT 31 Aug 01:21:18 01:25:24 41° 263° (W) 01:29:31 437.525
AISAT 31 Aug 01:21:21 01:23:00 12° 277° (W) 01:24:28 437.250
UNISAT 6 31 Aug 01:21:35 01:25:45 33° 297° (WNW) 01:29:47 437.425
M-CUBED/EXP-1 PRIME 31 Aug 01:22:06 01:26:09 44° 299° (WNW) 01:29:52 437.505
BUGSAT 1 31 Aug 01:23:00 01:27:16 84° 105° (ESE) 01:31:33 437.445
CUBEBUG 1 31 Aug 01:23:41 01:26:29 16° 273° (W) 01:29:11 437.445
QB50P2 31 Aug 01:26:09 01:30:26 59° 290° (WNW) 01:34:39 145.880/145.840
NANOSAT C BR1 31 Aug 01:28:01 01:32:16 59° 289° (WNW) 01:36:29 145.865
SO-50 31 Aug 01:31:45 01:34:36 16° 112° (ESE) 01:37:38 436.795
SWISSCUBE 31 Aug 01:38:37 01:43:12 48° 67° (ENE) 01:47:48 437.505
QB50P1 31 Aug 01:41:21 01:45:28 45° 292° (WNW) 01:49:34 145.935-145.965
Cosmos 2504 31 Aug 01:42:07 01:50:11 53° 292° (WNW) 01:58:36 435.465 / 435.565
TIGRISAT 31 Aug 01:51:02 01:54:33 21° 302° (WNW) 01:57:56 435.000
RS-15 31 Aug 01:51:50 02:03:32 79° 231° (SW) 02:15:41 29.354- 29.394
PCSat 31 Aug 01:53:35 01:56:00 13° 105° (ESE) 01:58:41 145.827
ANTELSAT 31 Aug 02:08:11 02:11:02 16° 306° (NW) 02:13:45 437.575/2403.000
YUBILEINY 31 Aug 02:13:14 02:16:59 13° 330° (NNW) 02:20:26 435.215
ITUPSAT 1 31 Aug 02:16:24 02:21:11 87° 79° (E) 02:26:01 437.325
STARS 31 Aug 02:25:27 02:28:23 18° 56° (ENE) 02:31:28 437.465
TISAT 1 31 Aug 02:31:10 02:33:52 16° 273° (W) 02:36:26 437.305
CUSAT 1 31 Aug 02:37:30 02:41:28 29° 303° (WNW) 02:46:28 437.405
KKS-1 31 Aug 02:40:20 02:44:19 33° 64° (ENE) 02:48:23 437.445
POLYITAN 1 31 Aug 02:43:24 02:46:01 16° 304° (NW) 02:48:32 437.675
POPSAT HIP 1 31 Aug 02:46:28 02:49:00 15° 305° (NW) 02:51:23 437.405
JAS-2 31 Aug 02:47:24 02:51:00 15° 75° (ENE) 02:54:46 435.910
DUCHIFAT 1 31 Aug 02:47:50 02:50:20 15° 305° (NW) 02:52:42 145.980
MOZHAYETS 4 31 Aug 02:49:55 02:50:19 10° 49° (NE) 02:50:53
Oscar 19 31 Aug 02:50:09 02:55:14 50° 99° (E) 03:00:17 437.125/150
BEESAT 31 Aug 02:50:33 02:55:11 49° 260° (W) 02:59:50 436.000
AUBIESAT-1 31 Aug 02:54:16 02:55:39 11° 318° (NW) 02:56:53 437.475
AIST 2 31 Aug 02:58:26 03:01:14 17° 245° (WSW) 03:03:52 435.215
GONETS M04 31 Aug 02:58:27 03:06:11 39° 85° (E) 03:14:06
DANDE 31 Aug 02:58:56 03:02:23 26° 304° (WNW) 03:06:42 436.750
BUGSAT 1 31 Aug 02:59:31 03:02:13 16° 303° (WNW) 03:04:49 437.445
QB50P2 31 Aug 03:04:12 03:05:30 11° 309° (NW) 03:06:39 145.880/145.840
NANOSAT C BR1 31 Aug 03:06:00 03:07:17 11° 309° (NW) 03:08:24 145.865
SO-50 31 Aug 03:09:35 03:14:26 77° 132° (SE) 03:19:25 436.795
O/OREOS (USA 219) 31 Aug 03:13:29 03:16:09 15° 31° (NNE) 03:18:54 437.305
SWISSCUBE 31 Aug 03:17:08 03:21:16 28° 267° (W) 03:25:23 437.505
Gurwin Techsat 1B 31 Aug 03:23:36 03:28:28 35° 95° (E) 03:33:21 435.225
PCSat 31 Aug 03:33:10 03:38:32 66° 124° (SE) 03:43:57 145.827
Cosmos 2504 31 Aug 03:39:30 03:44:57 17° 319° (NW) 03:50:11 435.465 / 435.565
ITAMSAT 1 31 Aug 03:46:58 03:51:55 43° 98° (E) 03:56:52 435.822/435.867
ITUPSAT 1 31 Aug 03:56:53 03:59:49 16° 274° (W) 04:02:36 437.325
STARS 31 Aug 03:59:54 04:04:20 80° 254° (WSW) 04:08:49 437.465
RS-15 31 Aug 04:05:01 04:14:30 28° 256° (WSW) 04:23:50 29.354- 29.394
AO-7 31 Aug 04:11:46 04:17:53 23° 86° (E) 04:24:14 29.400- 29.500
KKS-1 31 Aug 04:16:45 04:20:55 37° 263° (W) 04:25:07 437.445
MOZHAYETS 4 31 Aug 04:22:09 04:26:36 49° 68° (ENE) 04:31:03
Cosmos 2499 31 Aug 04:26:16 04:33:54 39° 84° (E) 04:41:54 435.465 / 435.565
Oscar 19 31 Aug 04:29:48 04:34:26 32° 299° (WNW) 04:39:00 437.125/150
JAS-2 31 Aug 04:30:37 04:37:56 63° 100° (E) 04:44:24 435.910
CUBESAT XI-V 31 Aug 04:39:49 04:41:26 12° 51° (NE) 04:43:14 437.345
SO-50 31 Aug 04:50:55 04:55:26 34° 334° (NNW) 04:59:59 436.795
O/OREOS (USA 219) 31 Aug 04:52:06 04:56:40 55° 55° (NE) 05:01:12 437.305
GONETS M04 31 Aug 04:54:06 05:02:44 63° 288° (WNW) 05:11:25
Gurwin Techsat 1B 31 Aug 05:03:32 05:08:36 45° 295° (WNW) 05:13:38 435.225
HORYU 2 31 Aug 05:12:43 05:16:56 39° 97° (E) 05:21:07 437.375
PCSat 31 Aug 05:17:19 05:22:20 36° 326° (NW) 05:27:22 145.827
ITAMSAT 1 31 Aug 05:26:39 05:31:23 36° 298° (WNW) 05:36:05 435.822/435.867
STARS 31 Aug 05:39:49 05:41:37 12° 276° (W) 05:43:13 437.465
STRAND 1 31 Aug 05:45:07 05:48:20 17° 52° (NE) 05:51:40 437.568
MOZHAYETS 4 31 Aug 06:00:10 06:04:04 26° 268° (W) 06:07:55
AO-7 31 Aug 06:03:45 06:12:08 82° 109° (ESE) 06:20:27 29.400- 29.500
CUBESAT XI-V 31 Aug 06:13:31 06:18:02 60° 71° (ENE) 06:22:36 437.345
JAS-2 31 Aug 06:15:58 06:22:39 37° 303° (WNW) 06:28:38 435.910
YUBILEINY 31 Aug 06:16:20 06:21:31 17° 38° (NE) 06:26:59 435.215
Cosmos 2499 31 Aug 06:18:06 06:26:40 67° 287° (WNW) 06:35:34 435.465 / 435.565
O/OREOS (USA 219) 31 Aug 06:32:01 06:35:49 25° 255° (WSW) 06:39:33 437.305
SO-50 31 Aug 06:33:22 06:37:15 22° 358° (N) 06:41:10 436.795
Gurwin Techsat 1B 31 Aug 06:45:47 06:47:27 11° 316° (NW) 06:48:56 435.225
HORYU 2 31 Aug 06:49:29 06:53:31 32° 297° (WNW) 06:57:28 437.375
GONETS M04 31 Aug 06:55:36 07:01:50 20° 316° (NW) 07:07:51
Cubesat XI-IV 31 Aug 06:59:30 07:03:46 24° 90° (E) 07:08:08 437.490
PRISM 31 Aug 07:00:39 07:04:25 37° 66° (ENE) 07:08:14 437.425
PCSat 31 Aug 07:03:19 07:07:16 20° 351° (N) 07:11:13 145.827
STRAND 1 31 Aug 07:21:45 07:26:51 79° 73° (ENE) 07:32:00 437.568
CUTE-I 31 Aug 07:44:16 07:49:29 52° 100° (E) 07:54:41 437.470
CUBESAT XI-V 31 Aug 07:52:19 07:55:54 21° 271° (W) 07:59:24 437.345
AO-7 31 Aug 07:57:02 08:04:21 35° 312° (NW) 08:11:31 29.400- 29.500
JAS-2 31 Aug 08:02:29 08:05:43 13° 327° (NNW) 08:08:38 435.910
HO-68 31 Aug 08:10:26 08:12:04 11° 76° (ENE) 08:14:11 435.675
YUBILEINY 31 Aug 08:12:36 08:21:10 51° 67° (ENE) 08:29:43 435.215
SO-50 31 Aug 08:14:48 08:19:11 30° 22° (NNE) 08:23:33 436.795
Cosmos 2499 31 Aug 08:15:20 08:21:57 22° 314° (NW) 08:28:25 435.465 / 435.565
PRISM 31 Aug 08:36:21 08:39:57 28° 265° (W) 08:43:31 437.425
Cubesat XI-IV 31 Aug 08:39:05 08:44:23 65° 291° (WNW) 08:49:39 437.490
BRITE-PL 31 Aug 08:43:03 08:48:10 43° 96° (E) 08:53:33 437.365/2234.400
AIST 1 31 Aug 08:47:22 08:51:21 41° 93° (E) 08:55:24
PCSat 31 Aug 08:48:19 08:52:32 22° 17° (NNE) 08:56:48 145.827
CUTE 1.7 + AOD 2 31 Aug 09:01:07 09:03:36 15° 86° (E) 09:06:10 437.475
AUBIESAT-1 31 Aug 09:03:04 09:05:55 17° 48° (NE) 09:08:50 437.475
STRAND 1 31 Aug 09:03:07 09:06:45 19° 273° (W) 09:10:15 437.568
M-CUBED/EXP-1 PRIME 31 Aug 09:07:08 09:10:29 20° 50° (NE) 09:13:52 437.505
Cosmos 2491 31 Aug 09:08:25 09:16:08 39° 85° (E) 09:24:01 435.465 / 435.565
PHONESAT 2.4 31 Aug 09:11:31 09:11:35 10° 178° (S) 09:11:37 2401.200-2431.200
CANX-2 31 Aug 09:14:28 09:17:45 22° 90° (E) 09:21:06 2200.000
UNISAT 6 31 Aug 09:15:15 09:17:47 15° 53° (NE) 09:20:27 437.425
GOMX 1 31 Aug 09:15:31 09:20:46 50° 98° (E) 09:26:07 467.674
CUTE-I 31 Aug 09:24:41 09:29:24 32° 300° (WNW) 09:34:03 437.470
Cosmos 2504 31 Aug 09:28:48 09:35:48 27° 53° (NE) 09:42:46 435.465 / 435.565
DOVE 4 31 Aug 09:32:28 09:37:33 45° 96° (E) 09:42:40 437.250
SEEDS 31 Aug 09:36:58 09:40:30 26° 92° (E) 09:44:04 437.485
CUSAT 1 31 Aug 09:39:50 09:45:12 23° 52° (NE) 09:51:21 437.405
Oscar 11 31 Aug 09:41:15 09:41:54 10° 82° (E) 09:42:47 145.826/435.025
TIGRISAT 31 Aug 09:42:46 09:46:21 22° 59° (ENE) 09:50:01 435.000
AO-7 31 Aug 09:50:25 09:54:50 16° 338° (NNW) 09:59:06 29.400- 29.500
HO-68 31 Aug 09:54:51 10:01:51 51° 99° (E) 10:08:50 435.675
SO-50 31 Aug 09:55:22 10:00:24 82° 45° (NE) 10:05:18 436.795
ANTELSAT 31 Aug 09:58:59 10:03:03 30° 62° (ENE) 10:07:10 437.575/2403.000
COMPASS 1 31 Aug 09:59:48 10:03:37 34° 95° (E) 10:07:25 437.405
DANDE 31 Aug 10:03:04 10:08:13 22° 54° (NE) 10:14:17 436.750
YUBILEINY 31 Aug 10:09:41 10:18:08 51° 271° (W) 10:26:28 435.215
AAUSAT CUBESAT 2 31 Aug 10:10:33 10:14:24 37° 96° (E) 10:18:15 437.432
CUBEBUG 2 31 Aug 10:17:45 10:21:46 27° 91° (E) 10:25:46 437.445
Cubesat XI-IV 31 Aug 10:20:32 10:23:37 15° 311° (NW) 10:26:34 437.490
ZACube-1 31 Aug 10:21:03 10:24:10 18° 87° (E) 10:27:20 437.345
BRITE-PL 31 Aug 10:21:40 10:26:40 40° 295° (WNW) 10:31:52 437.365/2234.400
CINEMA 3 31 Aug 10:22:46 10:27:45 58° 100° (E) 10:32:39 145.822/145.860
AIST 1 31 Aug 10:25:34 10:29:11 26° 294° (WNW) 10:32:47
UWE-3 31 Aug 10:26:06 10:29:57 26° 91° (E) 10:33:47 435.000/436.395/437.385
FUNcube-1 31 Aug 10:26:37 10:29:54 20° 88° (E) 10:33:14 145.935
POLYITAN 1 31 Aug 10:30:25 10:33:48 23° 61° (ENE) 10:37:15 437.675
PCSat 31 Aug 10:31:51 10:37:10 51° 41° (NE) 10:42:29 145.827
POPSAT HIP 1 31 Aug 10:33:13 10:36:38 24° 61° (ENE) 10:40:06 437.405
DUCHIFAT 1 31 Aug 10:34:16 10:37:37 23° 61° (ENE) 10:41:04 145.980
AUBIESAT-1 31 Aug 10:35:16 10:40:00 74° 65° (ENE) 10:44:36 437.475
CUTE 1.7 + AOD 2 31 Aug 10:35:49 10:40:05 75° 287° (WNW) 10:44:17 437.475
DELFI C3 31 Aug 10:39:16 10:42:29 23° 92° (E) 10:45:44 145.870
M-CUBED/EXP-1 PRIME 31 Aug 10:39:55 10:44:44 90° 152° (SSE) 10:49:27 437.505
BUGSAT 1 31 Aug 10:44:55 10:47:52 20° 59° (ENE) 10:50:56 437.445
UNISAT 6 31 Aug 10:49:08 10:53:50 73° 72° (ENE) 10:58:35 437.425
QB50P2 31 Aug 10:49:31 10:53:20 33° 65° (ENE) 10:57:13 145.880/145.840
CANX-2 31 Aug 10:49:50 10:53:59 51° 290° (WNW) 10:58:04 2200.000
NANOSAT C BR1 31 Aug 10:51:02 10:54:49 32° 64° (ENE) 10:58:40 145.865
GOMX 1 31 Aug 10:53:54 10:58:44 35° 297° (WNW) 11:03:38 467.674
Cosmos 2491 31 Aug 11:04:02 11:12:42 64° 288° (WNW) 11:21:22 435.465 / 435.565
QB50P1 31 Aug 11:04:10 11:08:11 42° 68° (ENE) 11:12:16 145.935-145.965
GONETS M04 31 Aug 11:04:44 11:06:08 10° 24° (NNE) 11:07:51
DX 1 31 Aug 11:07:25 11:09:12 12° 85° (E) 11:11:12 434.975-435.025
ISS 31 Aug 11:07:27 11:10:19 29° 154° (SSE) 11:13:13 145.825
DOVE 4 31 Aug 11:10:22 11:15:13 37° 296° (WNW) 11:20:02 437.250
HUMSAT D 31 Aug 11:10:45 11:14:03 22° 90° (E) 11:17:23 437.325/437.525
SEEDS 31 Aug 11:12:28 11:16:28 42° 292° (WNW) 11:20:24 437.485
Oscar 11 31 Aug 11:14:38 11:18:59 73° 103° (ESE) 11:23:17 145.826/435.025
TIGRISAT 31 Aug 11:18:00 11:22:41 68° 258° (WSW) 11:27:26 435.000
UKube-1 31 Aug 11:20:27 11:22:52 15° 87° (E) 11:25:26 .
Cosmos 2504 31 Aug 11:20:47 11:29:29 86° 79° (ENE) 11:37:43 435.465 / 435.565
CUSAT 1 31 Aug 11:21:41 11:29:01 70° 73° (ENE) 11:37:16 437.405
50 SAT 31 Aug 11:23:14 11:24:49 12° 85° (E) 11:26:34 437.505
AISAT 31 Aug 11:26:50 11:29:05 14° 85° (E) 11:31:29 437.250
ANTELSAT 31 Aug 11:35:06 11:39:39 47° 262° (W) 11:44:14 437.575/2403.000
COMPASS 1 31 Aug 11:35:31 11:39:15 32° 295° (WNW) 11:42:57 437.405
SO-50 31 Aug 11:36:36 11:40:28 22° 244° (WSW) 11:44:10 436.795
AO-7 31 Aug 11:41:22 11:44:11 12° 7° (N) 11:47:04 29.400- 29.500
HO-68 31 Aug 11:42:47 11:49:37 47° 301° (WNW) 11:56:22 435.675
DANDE 31 Aug 11:45:26 11:52:26 72° 74° (ENE) 12:00:48 436.750
AAUSAT CUBESAT 2 31 Aug 11:46:17 11:49:56 30° 295° (WNW) 11:53:31 437.432
CUBEBUG 2 31 Aug 11:54:06 11:58:42 49° 292° (WNW) 12:03:10 437.445
VELOX 1 31 Aug 11:54:20 11:57:51 23° 91° (E) 12:01:27 145.980
ZACube-1 31 Aug 11:56:29 12:01:03 69° 288° (WNW) 12:05:28 437.345
CINEMA 3 31 Aug 12:00:22 12:04:39 28° 299° (WNW) 12:08:47 145.822/145.860
FUNcube-1 31 Aug 12:02:10 12:06:41 63° 289° (WNW) 12:11:05 145.935
UWE-3 31 Aug 12:02:13 12:06:45 50° 291° (WNW) 12:11:09 435.000/436.395/437.385
BRITE-PL 31 Aug 12:03:33 12:04:01 10° 314° (NW) 12:04:17 437.365/2234.400
POLYITAN 1 31 Aug 12:05:12 12:09:24 54° 259° (W) 12:13:40 437.675
POPSAT HIP 1 31 Aug 12:08:03 12:12:14 52° 260° (W) 12:16:27 437.405
DUCHIFAT 1 31 Aug 12:09:00 12:13:09 52° 260° (W) 12:17:22 145.980
YUBILEINY 31 Aug 12:09:21 12:12:54 13° 294° (WNW) 12:15:56 435.215
AUBIESAT-1 31 Aug 12:11:39 12:15:08 20° 265° (W) 12:18:27 437.475
CUTE 1.7 + AOD 2 31 Aug 12:13:19 12:15:18 13° 306° (NW) 12:17:10 437.475
DELFI C3 31 Aug 12:13:55 12:17:45 43° 292° (WNW) 12:21:32 145.870
PCSat 31 Aug 12:15:29 12:20:33 40° 243° (WSW) 12:25:34 145.827
M-CUBED/EXP-1 PRIME 31 Aug 12:17:03 12:20:07 16° 267° (W) 12:23:00 437.505
BUGSAT 1 31 Aug 12:18:54 12:22:57 61° 258° (WSW) 12:27:06 437.445
QB50P2 31 Aug 12:25:15 12:29:12 35° 264° (W) 12:33:10 145.880/145.840
NANOSAT C BR1 31 Aug 12:26:40 12:30:37 35° 264° (W) 12:34:34 145.865
UNISAT 6 31 Aug 12:27:48 12:31:10 19° 273° (W) 12:34:25 437.425
Oscar 19 31 Aug 12:35:16 12:39:28 26° 58° (ENE) 12:43:46 437.125/150
QB50P1 31 Aug 12:40:33 12:44:12 27° 267° (W) 12:47:52 145.935-145.965
DX 1 31 Aug 12:41:48 12:46:14 84° 105° (ESE) 12:50:38 434.975-435.025
ISS 31 Aug 12:43:12 12:46:26 64° 173° (S) 12:49:40 145.825
HUMSAT D 31 Aug 12:45:56 12:50:06 52° 290° (WNW) 12:54:13 437.325/437.525
ESTCUBE 1 31 Aug 12:46:46 12:51:11 52° 100° (E) 12:55:35 437.505/2401.250
Oscar 11 31 Aug 12:51:41 12:54:43 18° 302° (WNW) 12:57:38 145.826/435.025
UKube-1 31 Aug 12:55:15 12:59:38 81° 285° (WNW) 13:03:58 .
50 SAT 31 Aug 12:56:03 12:59:58 81° 286° (WNW) 13:03:50 437.505
TIGRISAT 31 Aug 12:59:04 13:00:26 11° 279° (W) 13:01:34 435.000
GONETS M04 31 Aug 12:59:36 13:07:01 30° 55° (NE) 13:14:36
SPROUT 31 Aug 13:01:45 13:05:14 23° 91° (E) 13:08:46 437.525
AISAT 31 Aug 13:01:51 13:06:23 90° 127° (SE) 13:10:52 437.250
CUBEBUG 1 31 Aug 13:03:56 13:08:20 63° 102° (ESE) 13:12:44 437.445
CUSAT 1 31 Aug 13:04:39 13:11:18 36° 271° (W) 13:18:29 437.405
Cosmos 2491 31 Aug 13:05:33 13:11:48 20° 316° (NW) 13:17:48 435.465 / 435.565
JAS-2 31 Aug 13:05:48 13:11:04 21° 44° (NE) 13:16:27 435.910
Gurwin Techsat 1B 31 Aug 13:12:58 13:16:49 21° 54° (NE) 13:20:47 435.225
Cosmos 2504 31 Aug 13:13:51 13:20:48 28° 282° (WNW) 13:27:18 435.465 / 435.565
AO-7 31 Aug 13:28:13 13:33:55 21° 34° (NE) 13:39:46 29.400- 29.500
DANDE 31 Aug 13:28:59 13:35:20 34° 271° (W) 13:42:27 436.750
VELOX 1 31 Aug 13:30:21 13:34:44 54° 291° (WNW) 13:39:06 145.980
HO-68 31 Aug 13:31:39 13:35:47 16° 324° (NW) 13:39:44 435.675
ITAMSAT 1 31 Aug 13:33:16 13:37:20 24° 57° (ENE) 13:41:30 435.822/435.867
CUBEBUG 2 31 Aug 13:33:18 13:34:22 11° 312° (NW) 13:35:14 437.445
ZACube-1 31 Aug 13:34:23 13:36:37 13° 307° (NW) 13:38:42 437.345
FUNcube-1 31 Aug 13:40:14 13:42:11 12° 308° (NW) 13:43:57 145.935
UWE-3 31 Aug 13:41:16 13:42:17 11° 311° (NW) 13:43:08 435.000/436.395/437.385
TISAT 1 31 Aug 14:07:07 14:11:21 55° 101° (E) 14:15:33 437.305
Cosmos 2499 31 Aug 14:09:06 14:15:53 24° 49° (NE) 14:22:38 435.465 / 435.565
ITUPSAT 1 31 Aug 14:11:59 14:14:34 15° 85° (E) 14:17:20 437.325
Oscar 19 31 Aug 14:13:20 14:18:28 65° 257° (WSW) 14:23:41 437.125/150
DX 1 31 Aug 14:19:04 14:21:58 17° 304° (NW) 14:24:44 434.975-435.025
ISS 31 Aug 14:19:29 14:22:41 53° 193° (SSW) 14:25:52 145.825
ESTCUBE 1 31 Aug 14:24:05 14:27:49 26° 299° (WNW) 14:31:29 437.505/2401.250
50 SAT 31 Aug 14:32:10 14:33:52 12° 305° (NW) 14:35:27 437.505
UKube-1 31 Aug 14:32:41 14:35:07 15° 306° (NW) 14:37:25 .
SPROUT 31 Aug 14:37:21 14:41:35 50° 291° (WNW) 14:45:46 437.525
AISAT 31 Aug 14:39:30 14:42:23 17° 305° (NW) 14:45:08 437.250
CUBEBUG 1 31 Aug 14:40:57 14:44:20 21° 301° (WNW) 14:47:39 437.445
HORYU 2 31 Aug 14:42:46 14:45:11 15° 53° (NE) 14:47:43 437.375
BEESAT 31 Aug 14:44:31 14:48:35 27° 93° (E) 14:52:40 436.000
JAS-2 31 Aug 14:47:10 14:54:46 59° 66° (ENE) 15:02:24 435.910
Gurwin Techsat 1B 31 Aug 14:50:54 14:56:15 86° 253° (WSW) 15:01:37 435.225
GONETS M04 31 Aug 14:56:19 15:05:10 87° 262° (W) 15:14:02
VELOX 1 31 Aug 15:09:14 15:10:24 11° 310° (NW) 15:11:24 145.980
SWISSCUBE 31 Aug 15:10:08 15:14:45 47° 99° (E) 15:19:22 437.505
ITAMSAT 1 31 Aug 15:11:17 15:16:27 70° 256° (WSW) 15:21:39 435.822/435.867
AO-7 31 Aug 15:17:07 15:25:08 55° 58° (ENE) 15:33:13 29.400- 29.500
TISAT 1 31 Aug 15:43:25 15:46:49 23° 300° (WNW) 15:50:08 437.305
STARS 31 Aug 15:44:54 15:46:54 13° 85° (E) 15:49:05 437.465
ITUPSAT 1 31 Aug 15:48:26 15:53:15 89° 109° (ESE) 15:58:01 437.325
ISS 31 Aug 15:56:11 15:58:38 20° 212° (SSW) 16:01:03 145.825
Oscar 19 31 Aug 15:57:09 15:59:01 11° 279° (W) 16:00:35 437.125/150
KKS-1 31 Aug 16:01:24 16:05:16 28° 93° (E) 16:09:09 437.445
Cosmos 2499 31 Aug 16:02:01 16:10:53 75° 75° (ENE) 16:19:13 435.465 / 435.565
BEESAT 3 31 Aug 16:14:43 16:18:31 39° 124° (SE) 16:22:22 437.485
HORYU 2 31 Aug 16:16:38 16:21:08 77° 72° (ENE) 16:25:40 437.375
BEESAT 31 Aug 16:22:04 16:26:41 49° 293° (WNW) 16:31:15 436.000
RS-15 31 Aug 16:24:08 16:33:26 35° 108° (ESE) 16:43:18 29.354- 29.394
BEESAT 2 31 Aug 16:26:18 16:30:07 39° 124° (SE) 16:33:59 435.950
JAS-2 31 Aug 16:32:42 16:40:03 43° 267° (W) 16:47:27 435.910
Gurwin Techsat 1B 31 Aug 16:33:46 16:37:07 16° 275° (W) 16:40:18 435.225
SWISSCUBE 31 Aug 16:48:18 16:52:28 30° 298° (WNW) 16:56:33 437.505
Cubesat XI-IV 31 Aug 16:50:22 16:53:31 16° 50° (NE) 16:56:48 437.490
GONETS M04 31 Aug 16:54:10 17:00:58 25° 283° (WNW) 17:07:31
ITAMSAT 1 31 Aug 16:54:45 16:57:02 12° 278° (W) 16:59:05 435.822/435.867
AIST 2 31 Aug 17:01:10 17:04:28 23° 118° (ESE) 17:07:52 435.215
AO-7 31 Aug 17:10:08 17:18:10 48° 261° (W) 17:26:11 29.400- 29.500
Cosmos 2491 31 Aug 17:15:01 17:16:07 10° 23° (NNE) 17:17:31 435.465 / 435.565
STARS 31 Aug 17:19:37 17:24:07 86° 103° (ESE) 17:28:34 437.465
ITUPSAT 1 31 Aug 17:27:20 17:30:34 18° 305° (NW) 17:33:42 437.325
CUTE-I 31 Aug 17:33:37 17:38:08 30° 59° (ENE) 17:42:45 437.470
KKS-1 31 Aug 17:37:46 17:42:05 45° 293° (WNW) 17:46:21 437.445
MOZHAYETS 4 31 Aug 17:47:54 17:52:21 49° 99° (E) 17:56:47
BEESAT 3 31 Aug 17:52:33 17:56:27 41° 324° (NW) 18:00:21 437.485
HORYU 2 31 Aug 17:55:26 17:58:22 16° 273° (W) 18:01:11 437.375
Cosmos 2499 31 Aug 17:55:50 18:03:24 33° 279° (W) 18:10:26 435.465 / 435.565
BEESAT 31 Aug 18:02:19 18:03:32 11° 313° (NW) 18:04:33 436.000
BEESAT 2 31 Aug 18:04:13 18:08:10 42° 325° (NW) 18:12:06 435.950
BRITE-PL 31 Aug 18:24:30 18:27:10 16° 52° (NE) 18:30:05 437.365/2234.400
Cubesat XI-IV 31 Aug 18:27:32 18:32:49 70° 71° (ENE) 18:38:09 437.490
RS-15 31 Aug 18:33:37 18:44:42 88° 317° (NW) 18:56:21 29.354- 29.394
AIST 2 31 Aug 18:38:28 18:42:42 68° 317° (NW) 18:46:57 435.215
HO-68 31 Aug 18:44:50 18:50:00 22° 44° (NE) 18:55:19 435.675
AIST 1 31 Aug 18:48:00 18:51:25 23° 64° (ENE) 18:54:54
GOMX 1 31 Aug 18:54:00 18:57:07 18° 54° (NE) 19:00:31 467.674
STARS 31 Aug 18:57:04 19:00:01 17° 304° (NW) 19:02:50 437.465
DOVE 4 31 Aug 19:08:47 19:11:44 17° 53° (NE) 19:14:55 437.250
Cosmos 2491 31 Aug 19:09:41 19:17:01 29° 54° (NE) 19:24:32 435.465 / 435.565
AO-7 31 Aug 19:11:07 19:13:32 11° 286° (WNW) 19:15:20 29.400- 29.500
O/OREOS (USA 219) 31 Aug 19:12:04 19:15:04 18° 102° (ESE) 19:18:14 437.305
CUTE-I 31 Aug 19:12:45 19:17:59 57° 259° (WSW) 19:23:15 437.470
MOZHAYETS 4 31 Aug 19:25:31 19:29:23 27° 298° (WNW) 19:33:11
STRAND 1 31 Aug 19:26:55 19:30:09 17° 86° (E) 19:33:32 437.568
BEESAT 3 31 Aug 19:32:25 19:35:19 18° 347° (NNW) 19:38:11 437.485
YUBILEINY 31 Aug 19:34:01 19:35:10 10° 63° (ENE) 19:36:55 435.215
AAUSAT CUBESAT 2 31 Aug 19:36:02 19:36:11 10° 52° (NE) 19:36:30 437.432
CUBESAT XI-V 31 Aug 19:41:00 19:45:38 64° 101° (ESE) 19:50:15 437.345
BEESAT 2 31 Aug 19:44:13 19:47:09 18° 347° (NNW) 19:50:04 435.950
CUBEBUG 2 31 Aug 19:50:01 19:50:18 10° 48° (NE) 19:50:47 437.445
CINEMA 3 31 Aug 19:54:58 19:58:22 20° 56° (NE) 20:01:57 145.822/145.860
CUTE 1.7 + AOD 2 31 Aug 19:59:32 20:03:02 25° 62° (ENE) 20:06:35 437.475
BRITE-PL 31 Aug 20:00:27 20:04:56 80° 72° (ENE) 20:09:49 437.365/2234.400
Cubesat XI-IV 31 Aug 20:09:17 20:13:29 23° 271° (W) 20:17:36 437.490
PRISM 31 Aug 20:11:51 20:15:15 25° 93° (E) 20:18:42 437.425
CANX-2 31 Aug 20:13:02 20:16:55 35° 66° (ENE) 20:20:51 2200.000
AIST 2 31 Aug 20:18:32 20:21:58 23° 340° (NNW) 20:25:22 435.215
AIST 1 31 Aug 20:25:10 20:29:22 51° 265° (W) 20:33:35
HO-68 31 Aug 20:29:34 20:36:41 70° 66° (ENE) 20:43:52 435.675
GOMX 1 31 Aug 20:29:56 20:34:34 90° 252° (WSW) 20:39:37 467.674
SEEDS 31 Aug 20:34:37 20:38:36 41° 68° (ENE) 20:42:36 437.485
Oscar 11 31 Aug 20:40:42 20:43:48 20° 59° (ENE) 20:46:59 145.826/435.025
DOVE 4 31 Aug 20:44:00 20:48:43 80° 73° (ENE) 20:53:47 437.250
RS-15 31 Aug 20:47:39 20:58:33 51° 345° (NNW) 21:09:58 29.354- 29.394
O/OREOS (USA 219) 31 Aug 20:49:26 20:54:00 75° 301° (WNW) 20:58:38 437.305
COMPASS 1 31 Aug 20:56:35 21:00:40 52° 70° (ENE) 21:04:47 437.405
STRAND 1 31 Aug 21:04:59 21:10:08 87° 288° (WNW) 21:15:15 437.568
Cosmos 2491 31 Aug 21:06:24 21:15:12 88° 263° (W) 21:24:01 435.465 / 435.565
AAUSAT CUBESAT 2 31 Aug 21:06:51 21:10:57 56° 71° (ENE) 21:15:04 437.432
BEESAT 3 31 Aug 21:11:47 21:14:34 18° 11° (N) 21:17:23 437.485
CUBESAT XI-V 31 Aug 21:19:06 21:22:43 23° 301° (WNW) 21:26:17 437.345
CUBEBUG 2 31 Aug 21:21:27 21:25:56 46° 68° (ENE) 21:30:32 437.445
YUBILEINY 31 Aug 21:21:37 21:29:43 45° 87° (E) 21:37:57 435.215
ZACube-1 31 Aug 21:22:27 21:26:27 31° 64° (ENE) 21:30:34 437.345
BEESAT 2 31 Aug 21:23:41 21:26:32 18° 11° (N) 21:29:23 435.950
FUNcube-1 31 Aug 21:27:47 21:31:53 34° 64° (ENE) 21:36:02 145.935
UWE-3 31 Aug 21:28:41 21:33:05 43° 67° (ENE) 21:37:34 435.000/436.395/437.385
CINEMA 3 31 Aug 21:30:11 21:34:58 83° 256° (WSW) 21:39:59 145.822/145.860
DELFI C3 31 Aug 21:31:57 21:35:36 34° 66° (ENE) 21:39:17 145.870
CUTE 1.7 + AOD 2 31 Aug 21:34:34 21:38:44 48° 261° (W) 21:42:54 437.475
BRITE-PL 31 Aug 21:41:23 21:44:17 16° 277° (W) 21:47:08 437.365/2234.400
PRISM 31 Aug 21:46:57 21:50:52 42° 293° (WNW) 21:54:45 437.425
CANX-2 31 Aug 21:48:57 21:52:52 33° 265° (W) 21:56:46 2200.000
AIST 2 31 Aug 21:59:00 22:01:51 17° 3° (N) 22:04:41 435.215
HUMSAT D 31 Aug 22:07:58 22:11:53 35° 65° (ENE) 22:15:51 437.325/437.525
DX 1 31 Aug 22:08:11 22:11:42 25° 60° (ENE) 22:15:18 434.975-435.025
GOMX 1 31 Aug 22:10:52 22:13:37 15° 278° (W) 22:16:18 467.674
